Regional Weather Roundup
Issued by NWS Wakefield, VA

Home | Current Version | Previous Version | Text Only | Print | Product List | Glossary Off
Versions: 1 2 3 4 5 6 7 8 9 10 11 12 13 14 15 16 17 18 19 20 21 22 23 24 25 26 27 28 29 30 31 32 33 34 35 36 37 38 39 40 41 42 43 44 45 46 47 48 49 50

677
ASUS41 KAKQ 251015
RWRAKQ

REGIONAL WEATHER ROUNDUP
NATIONAL WEATHER SERVICE WAKEFIELD VA
500 AM EST SAT FEB 25 2017

Note: "fair" indicates few or no clouds below 12,000 feet with no
significant weather and/or obstructions to visibility. * = Denotes
station may not report precipitation (e.g., rain,snow,etc.),
thunder or fog.

VAZ042-051-052>054-056-251100-
NORTHERN VIRGINIA

CITY           SKY/WX    TMP DP  RH WIND       PRES   REMARKS
WASH NATIONAL  PTCLDY    58  56  93 S8        29.73F
DULLES         MOCLDY    59  55  87 SE12      29.70F
FORT BELVOIR   PTCLDY    55  54  94 CALM      29.73S
QUANTICO       CLEAR     55  55 100 SW6       29.74S
FREDERICKSBRG* PTCLDY    59  59 100 S7        29.73S
STAFFORD*      PTCLDY    58  57  99 CALM      29.77S
WARRENTON      CLEAR     58  54  86 SE3       29.71F
CULPEPER*      PTCLDY    56  56  98 CALM      29.71F
MANASSAS*        N/A     58  56  93 S9        29.72F
LEESBURG*      MOCLDY    61  61 100 MISG      29.70F
WINCHESTER     PTCLDY    57  52  82 SE7       29.65F
FRONT ROYAL*   CLOUDY    63  54  72 S6        29.65F
LURAY*         MOSUNNY   61  54  77 SW8       29.67
$$

VAZ048-049-060>072-079>083-251100-
CENTRAL AND SOUTH CENTRAL VIRGINIA

CITY           SKY/WX    TMP DP  RH WIND       PRES   REMARKS
RICHMOND       CLEAR     58  57  97 SE7       29.75F
CHESTERFIELD*  FAIR      57  43  58 S7        29.77F
PETERSBURG*    FOG       49  48  97 CALM      29.77S VSB 1/2
HANOVER        CLEAR     59  55  87 S7        29.76F
TAPPAHANNOCK*  CLEAR     59  59 100 S6        29.77S
QUINTON*       FAIR      55  55 100 CALM      29.76F
CHARLOTTSVILLE CLEAR     63  56  78 SW7       29.70F
GORDONSVILLE*  NOT AVBL
ORANGE*        PTCLDY    61  55  82 CALM      29.72F
LOUISA*        PTCLDY    64  61  88 S3        29.72F
BUMPASS*       FAIR      59  58  99 CALM      29.73
FARMVILLE*     CLEAR     59  57  94 CALM      29.72S
CREWE*         FAIR      57  57 100 S3        29.74F
FORT PICKETT*  FAIR     N/A N/A N/A S8        29.76S
CHASE CITY*    NOT AVBL
CLARKSVILLE*   FAIR      59  59 100 S6        29.75F
SOUTH HILL*    CLEAR     54  54 100 S5        29.82S
LAWRENCEVILLE* NOT AVBL
EMPORIA*       FOG       45  45 100 CALM      29.79S VSB 1/4
$$

VAZ088>098-251100-
SOUTHEAST VIRGINIA

CITY           SKY/WX    TMP DP  RH WIND       PRES   REMARKS
NORFOLK        FOG       54  53  97 CALM      29.78S VSB 3/4
VIRGINIA BEACH PTCLDY    50  48  93 CALM      29.78S
NORFOLK NAVAL  CLEAR     56  54  93 S3        29.79S
WEST POINT*    PTCLDY    57  56  96 CALM      29.78S
SALUDA*        FAIR      56  56 100 CALM      29.78S
NEWPORT NEWS   CLEAR     54  53  97 S3        29.78S FOG
LANGLEY AFB    CLEAR     54  54 100 CALM      29.77F FOG
FORT EUSTIS    CLEAR     55  52  91 CALM      29.75F
WILLIAMSBURG*  CLEAR     54  54 100 CALM      29.79R
HR EXEC AP*      N/A     45  43  93 CALM      29.77S VSB 1/2
FRANKLIN*      FOG       49  49  98 CALM      29.79S VSB 3/4
US460-WAKEFLD  PTCLDY    51  51 100 CALM      29.77F FOG
$$

VAZ020-022-025-037-045-251100-
WEST CENTRAL AND SOUTHWEST VIRGINIA

CITY           SKY/WX    TMP DP  RH WIND       PRES   REMARKS
STAUNTON*      PTCLDY    58  52  78 S8        29.70F
WAYNESBORO*    SUNNY     60  51  72 S12G18    29.70F
HOT SPRINGS VA PTCLDY    52  46  82 CALM      29.74S
LYNCHBURG      MOCLDY    59  54  83 S8        29.73F
DANVILLE       CLEAR     60  56  86 S3        29.73F
SOUTH BOSTON*  PTSUNNY   59  58  95 CALM      29.75S
MARTINSVILLE   MOCLDY    57  52  85 CALM      29.77R
ROANOKE        CLOUDY    60  52  74 SE10      29.72F
BLACKSBURG     CLOUDY    60  52  75 SE8       29.74F
DUBLIN*        CLOUDY    60  52  76 S8        29.71F
MARION*        MOCLDY    62  51  67 CALM      29.70F THUNDER
HILLSVILLE*    MOCLDY    57  52  82 S7        29.72F
RICHLANDS*     CLOUDY    61  49  64 SW6       29.66S THUNDER
WISE*          TSTM      55  55 100 W14       29.73R
ABINGDON*      CLOUDY    64  50  60 NW8       29.67R
$$

MDZ021>025-VAZ099-100-251100-
SOUTHERN MARYLAND AND THE DELMARVA PENINSULA

CITY           SKY/WX    TMP DP  RH WIND       PRES   REMARKS
PATUXENT RIVER CLOUDY    51  51 100 SE5       29.76S
BAY BRIDGE APT PTCLDY    57  55  94 S10       29.74F
LEONARDTOWN    CLOUDY    57  54  88 S3        29.78S
DOVER          NOT AVBL
GEORGETOWN     PTCLDY    55  54  96 S7        29.79S
EASTON         PTCLDY    60  56  87 S10       29.80S
CAMBRIDGE        N/A     55  54  94 S8        29.77S
SALISBURY      FOG       52  52 100 CALM      29.78S VSB 1
OCEAN CITY     FOG       47  46  97 CALM      29.80S VSB 1/2
WALLOPS ISLAND PTCLDY    50  50 100 SE3       29.79F FOG
ACCOMACK*      CLOUDY    55  54  94 S5        29.79S
$$

NCZ012>017-030>032-251100-
NORTH CENTRAL AND EASTERN NORTH CAROLINA

CITY           SKY/WX    TMP DP  RH WIND       PRES   REMARKS
ROANOKE RAPIDS FOG       52  52 100 CALM      29.77S VSB 1/2
RALEIGH        PTCLDY    60  57  89 S7        29.77S
ELIZABETH CITY FOG       50  50 100 CALM      29.78S VSB 3/4
AHOSKIE*         N/A     48  48  99 CALM      29.79R
EDENTON*       FOG       51  51  97 CALM      29.79S VSB 1/4
CURRITUCK*     CLEAR     52  52 100 CALM      29.79S
KILL DEVIL HLS NOT AVBL
MANTEO         CLEAR     52  52 100 CALM      29.79S FOG
CAPE HATTERAS  PTCLDY    61  58  90 N5        29.78S FOG
TARBORO*       NOT AVBL
GOLDSBORO      FOG       52  52 100 CALM      29.76S VSB 3/4
WASHINGTON     MOCLDY    49  49  99 CALM      29.78S
GREENVILLE     FOG       50  50 100 CALM      29.80S VSB 1/4
NEW BERN       FOG       49  49 100 CALM      29.79S VSB 1/2
WILMINGTON     FOG       51  51 100 CALM      29.78R VSB 1/2
$$

VAZ048-251100-
ELSEWHERE

CITY           SKY/WX    TMP DP  RH WIND       PRES   REMARKS
HARRISBURG PA  CLOUDY    60  57  89 SE8       29.69S
BALTIMORE      PTCLDY    51  51 100 E5        29.73F FOG
ANNAPOLIS      PTCLDY    54  53  97 S6        29.74F
ANDREWS AFB    PTCLDY    60  57  89 S12       29.72F
PHILADELPHIA   MOCLDY    57  54  89 S5        29.77F
HENDERSON NC   PTCLDY    55  53  95 S5        29.77S
GREENSBORO     MOCLDY    59  56  89 S9        29.74R
ROCKY MOUNT    FOG       52  52 100 CALM      29.78R VSB 1/4
$$

VAZ100-251100-
MARINE

STATION/POSITION TIME  TEMP    WIND        PRES    WAVE   SWELL
                       AIR SEA DIR/SP/G            HT/PER HT/PER
                 (UTC) (F)     (DEG/KT/KT) (MB)    (FT/S) (FT/S)
CAPE MAY NJ      0948   52 45  120/  6/  7 1008.4F
LEWES DE         0936   56 44  170/  5/  6 1008.5F
OCEAN-CITY-INLET 0936   49 46  160/  4/  5 1009.4F
WACHAPREAGUE VA  0942   53 56   CALM  /  1 1008.8S
THOMAS POINT MD  1000   52 45  160/ 14/ 15   N/A
GOOSES REEF MD   0950   49     160/ 12/ 12 1008.2F
COVE POINT MD    0942   48     180/ 10/ 11 1008.4S
SOLOMONS ISLAND  0942   56 45  180/  9/ 10   N/A
BISHOPS HEAD MD  0948   50 51  150/  6/  6 1008.5S
PINEY POINT MD   0948          130/  7/  7   N/A
POTOMAC MD       0950   49     160/  6/  6 1007.1S
CAMBRIDGE MD     0948   56 45  160/  4/  9 1007.3F
LEWISETTA VA     0942   60 50  210/  9/ 11 1007.5S
RAPPAHANNOCK LGT 0948          140/  7/  7 1008.9F
YORK RVR RNG VA  0942   52     180/  6/  6 1007.7R
YORKTOWN VA      0942   53 49   80/  5/  6 1008.0S
JAMESTOWN VA     0950   58     110/  4/  4   N/A
DOMINION TERM VA 0942   57      CALM  /  1 1008.5R
KIPTOPEKE VA     0942      49  150/  5/  6   N/A
CHES BAY BRIDGE  0942   56 47  130/  5/  6 1008.3S
CAPE HENRY VA    0942   58     170/  5/  5   N/A
WILLOUBY STN VA  0942   58     160/  4/  4 1009.2F
S CRANEY ISL VA  0942   56     210/  2/  3 1008.2R
CAPE HENRY BUOY  0942      50                N/A     5/11   2/11
OFFSHORE WE BUOY 0951      51                N/A     5/11   2/11
64NM E OF VA BCH 0950   56 54   20/  4/  6 1008.5S   6/10   7/10
DUCK PIER NC     0942   55 49  100/  2/  3 1008.0F
44100 DUCK FRF   0935      52                N/A     6/11   3/11
44056 DUCK FRF   0930      50                N/A     5/11   3/11
OREGON INLET NC  0942   55 57   30/  2/  3 1008.4F
HATTERAS NC      0942   61 63  360/  3/  5 1008.0F
DIAMOND SHLS NC  0950   69 76  210/  4/  8 1008.1F   8/10   7/10
CAPE LOOKOUT NC  0900   63     350/  4/  4 1008.1F
$$




USA.gov is the U.S. government's official web portal to all federal, state and local government web resources and services.